Tracking 19827 objects as of 21-Aug-2019
HD Live streaming from Space Station
objects crossing your sky now

LEMUR 2 DAVEWILSON

Track LEMUR 2 DAVEWILSON now!
10-day predictions
LEMUR 2 DAVEWILSON is classified as:


NORAD ID: 43126
Int'l Code: 2018-004R
Perigee: 492.5 km
Apogee: 507.0 km
Inclination: 97.5 °
Period: 94.5 minutes
Semi major axis: 6870 km
RCS: Unknown
Launch date: January 12, 2018
Source: United States (US)
Launch site: SRIHARIKOTA (SRI)
aabbcc
Your satellite tracking list
Your tracking list is empty




NASA's NSSDC Master Catalog

Two Line Element Set (TLE):
1 43126U 18004R   19232.75943379 +.00001238 +00000-0 +53424-4 0  9999
2 43126 097.4856 300.7829 0010563 040.0064 320.1950 15.24398658089126
Source of the keplerian elements: AFSPC